Flag for Germany Weather past 2 weeks in Zwickau, Saxony, Germany

Now
59 °F

Sunny.


Feels Like: 59 °F
Forecast: 50 / 68 °F
Wind: 2 mph from Southeast

Location: Altenburg Nobitz

Current Time: Oct 1, 2014 at 8:36:59 PM

Latest Report: Oct 1, 2014 at 7:20 PM


Visibility: 10 mi

Pressure: 30.33 "Hg

Humidity: 88%

Dew point: 55 °F

Location of ZwickauLocation

Historic Weather in Zwickau — Graph

°F

Zwickau temperature yesterday

Maximum temperature yesterday: 70 °F (at 1:50 PM)
Minimum temperature yesterday: 59 °F (at 8:20 AM)
Average temperature yesterday: 66 °F

Past Weeks' High & Low Weather Summary

 TemperatureHumidityPressure
High77 °F (Sep 29, 2:20 PM)100% (Sep 19, 8:20 AM)30.39 "Hg (Sep 19, 8:20 AM)
Low48 °F (Sep 22, 1:50 PM)47% (Sep 29, 3:20 PM)29.86 "Hg (Sep 24, 4:50 PM)
Average62 °F74%30.09 "Hg
* Reported Sep 16 7:20 PM — Oct 1 7:20 PM, Zwickau, Weather by CustomWeather, © 2014

Note: Actual official high and low records may vary slightly from our data, if they occured in-between our weather recording intervals... More about our weather records

Advertising

Zwickau weather history for previous 24 hours

 ConditionsComfort  
Time TempWeatherWind HumidityBarometerVisibility
7:20 PM
Oct 1
59 °FSunny.2 mph88%30.33 "Hg10 mi
6:50 PM61 °FSunny.2 mph88%30.33 "Hg10 mi
6:20 PM63 °FSunny.2 mph83%30.30 "Hg10 mi
5:50 PM64 °FSunny.3 mph73%30.30 "Hg10 mi
5:20 PM66 °FSunny.5 mph68%30.30 "Hg10 mi
4:50 PM66 °FScattered clouds.6 mph68%30.30 "HgN/A
4:20 PM66 °FScattered clouds.6 mph73%30.30 "HgN/A
3:50 PM66 °FMild.6 mph68%30.30 "HgN/A
3:20 PM68 °FScattered clouds.5 mph64%30.30 "HgN/A
2:50 PM66 °FScattered clouds.6 mph68%30.30 "HgN/A
2:20 PM68 °FScattered clouds.5 mph64%30.33 "HgN/A
1:50 PM66 °FScattered clouds.5 mph68%30.33 "HgN/A
1:20 PM66 °FScattered clouds.3 mph64%30.33 "HgN/A
12:50 PM68 °FScattered clouds.2 mph69%30.33 "HgN/A
12:20 PM66 °FScattered clouds.2 mph68%30.33 "Hg5 mi
11:50 AM64 °FScattered clouds.2 mph78%30.33 "Hg4 mi
11:20 AM64 °FScattered clouds.1 mph78%30.33 "Hg4 mi
10:50 AM64 °FFog.3 mph83%30.33 "Hg2 mi
10:20 AM63 °FFog.2 mph94%30.33 "Hg2 mi
9:50 AM61 °FFog.3 mph100%N/A2 mi
9:20 AM59 °FFog.2 mph100%30.33 "Hg1 mi
8:50 AM59 °FDrizzle. Fog.1 mph100%30.33 "Hg1 mi
8:20 AM57 °FFog.1 mph100%30.30 "Hg1 mi
Weather by CustomWeather, © 2014

See weather overviewHow to use our weather pages